Home   Weather   24°49'N, 67°04'E   Past weeks
Flag for Pakistan

Past Weather in 24°49'N, 67°04'E, Pakistan — Yesterday and Last 2 Weeks

Now
81 °F

Passing clouds.


Feels Like: 83 °F
Forecast: 94 / 76 °F
Wind: No wind

Location: Karachi Airport

Current Time: Oct 17, 2019 at 12:37:43 am

Latest Report: Oct 16, 2019 at 10:55 pm


Visibility: 4 mi

Pressure: 29.95 "Hg

Humidity: 66%

Dew Point: 68 °F

Location of 24°49'N, 67°04'ELocation

Past Weather in 24°49'N, 67°04'E — Graph

°F

24°49'N, 67°04'E Temperature Yesterday

Maximum temperature yesterday: 99 °F (at 2:25 pm)
Minimum temperature yesterday: 72 °F (at 6:25 am)
Average temperature yesterday: 85 °F

High & Low Weather Summary for the Past Weeks

 TemperatureHumidityPressure
High99 °F (Oct 16, 2:25 pm)94% (Oct 16, 6:25 am)29.98 "Hg (Oct 16, 6:25 am)
Low72 °F (Oct 13, 6:55 am)17% (Oct 13, 2:30 pm)29.59 "Hg (Oct 14, 4:25 pm)
Average84 °F60%29.88 "Hg
* Reported Oct 1 10:00 pm — Oct 16 10:55 pm, 24°49'N, 67°04'E. Weather by CustomWeather, © 2019

Note: Actual official high and low records may vary slightly from our data, if they occured in-between our weather recording intervals... More about our weather records

Advertising

24°49'N, 67°04'E Weather History for the Previous 24 Hours

Scroll right to see more
 ConditionsComfort  
Time TempWeatherWind HumidityBarometerVisibility
10:55 pm
Wed, Oct 16
81 °FPassing clouds.No wind66%29.95 "Hg4 mi
10:25 pm81 °FPassing clouds.5 mph62%29.95 "Hg4 mi
9:55 pm81 °FPassing clouds.5 mph62%29.95 "Hg4 mi
9:00 pm82 °FPassing clouds.5 mph55%29.92 "Hg4 mi
8:00 pm84 °FPassing clouds.No wind45%29.92 "Hg4 mi
7:30 pm86 °FPassing clouds.No wind40%29.89 "Hg4 mi
7:00 pm88 °FPassing clouds.8 mph35%29.89 "Hg4 mi
6:00 pm90 °FScattered clouds.6 mph31%29.89 "Hg4 mi
5:30 pm93 °FPartly sunny.7 mph26%29.89 "Hg4 mi
5:00 pm95 °FPartly sunny.8 mph22%29.86 "Hg4 mi
4:30 pm95 °FClear.5 mph23%29.86 "Hg4 mi
3:30 pm97 °FClear.6 mph19%29.86 "Hg4 mi
3:00 pm97 °FClear.6 mph19%29.86 "Hg4 mi
2:25 pm99 °FClear.9 mph19%29.89 "Hg4 mi
1:55 pm97 °FClear.7 mph19%29.89 "Hg4 mi
1:25 pm97 °FClear.7 mph20%29.89 "Hg4 mi
12:55 pm97 °FClear.9 mph20%29.92 "Hg4 mi
12:25 pm97 °FClear.7 mph20%29.92 "Hg4 mi
11:55 am97 °FClear.No wind20%29.95 "Hg4 mi
11:25 am97 °FClear.3 mph20%29.95 "Hg4 mi
10:55 am93 °FPassing clouds.No wind28%29.95 "Hg4 mi
9:55 am88 °FPassing clouds.No wind43%29.98 "Hg4 mi
9:25 am84 °FClear.No wind58%29.98 "Hg4 mi
8:55 am82 °FClear.1 mph66%29.98 "Hg4 mi
7:55 am75 °FPassing clouds.No wind89%29.95 "Hg2 mi
7:25 am72 °FPassing clouds.5 mph94%29.95 "Hg2 mi
6:55 am72 °FClear.3 mph94%29.95 "Hg2 mi
6:25 am72 °FClear.No wind94%29.95 "Hg2 mi
5:55 am73 °FClear.No wind89%29.95 "Hg2 mi
4:55 am73 °FClear.No wind89%29.92 "Hg4 mi
4:25 am75 °FClear.5 mph89%29.92 "Hg4 mi
3:55 am77 °FClear.6 mph89%29.92 "Hg4 mi
2:55 am77 °FClear.6 mph89%29.92 "Hg4 mi
2:25 am77 °FClear.No wind89%29.92 "Hg4 mi
1:55 am77 °FClear.No wind89%29.92 "Hg4 mi
1:25 am77 °FClear.No wind89%29.92 "Hg4 mi
12:55 am77 °FClear.3 mph83%29.95 "Hg4 mi
12:25 am77 °FClear.No wind83%29.95 "Hg4 mi
Weather by CustomWeather, © 2019

See weather overview